Location: Puketoi
(40.5833°S, 176.0167°E)
Time: 15:32:15
(UTC+00:00)

ALOS - Pass Details

Date: 08 February 2023
Orbit: 679 x 682 km, 98.0° (Epoch: 23 March)

Event Time Altitude Azimuth Distance (km) Brightness Sun altitude
Exits shadow 15:49:48 16° 255° (WSW) 1,756 4.0 -17.7°
Drops below altitude 10° 15:51:49 10° 230° (SW) 2,149 4.7 -17.4°
Sets 15:54:48 0° 210° (SSW) 3,074 5.7 -17.0°
